Location: ???????
(52.3000°N, 54.4667°E)
Time: 00:25:37
(UTC+00:00)

YAOGAN 1 - Pass Details

Date: 24 January 2020
Orbit: 619 x 621 km, 98.0° (Epoch: 23 February)

Event Time Altitude Azimuth Distance (km) Brightness Sun altitude
Rises 14:24:10 0° 155° (SSE) 2,889 5.9 -13.6°
Reaches altitude 10° 14:26:21 10° 153° (SSE) 1,987 5.0 -14.0°
Maximum altitude 14:30:38 66° 72° (ENE) 684 2.5 -14.6°
Drops below altitude 10° 14:34:57 10° 350° (N) 2,002 5.2 -15.2°
Sets 14:37:10 0° 348° (NNW) 2,913 6.0 -15.6°
